Regional Weather Roundup
Issued by NWS Boston, MA

Home | Current Version | Previous Version | Text Only | Print | Product List | Glossary On
Versions: 1 2 3 4 5 6 7 8 9 10 11 12 13 14 15 16 17 18 19 20 21 22 23 24 25 26 27 28 29 30 31 32 33 34 35 36 37 38 39 40 41 42 43 44 45 46 47 48 49 50
000
ASUS41 KBOX 261610
RWRBOX

REGIONAL WEATHER ROUNDUP
NATIONAL WEATHER SERVICE TAUNTON MA
1200 PM EDT TUE MAY 26 2015

NOTE:  "FAIR" INDICATES FEW OR NO CLOUDS BELOW 12,000 FEET WITH NO
SIGNIFICANT WEATHER AND/OR OBSTRUCTIONS TO VISIBILITY.  THE FOLLOWING
OBSERVATION LOCATIONS DO NOT REPORT PRESENT WEATHER...PROVINCETOWN...
SMITHFIELD...BLOCK ISLAND...KEENE...AND OXFORD.

MAZALL-261700-
EASTERN MASSACHUSETTS

CITY           SKY/WX    TMP DP  RH WIND       PRES   REMARKS
BOSTON         CLOUDY    77  60  55 SW14      30.15
BEVERLY        CLOUDY    76  60  57 SW14      30.13S
LAWRENCE       CLOUDY    79  61  53 SW13      30.15R
BEDFORD        CLOUDY    75  60  59 SW10      30.14S
BLUE HILL        N/A     73  60  63 SW16      30.18R
NORWOOD        CLOUDY    76  61  59 SW13      30.17R
MARSHFIELD     CLOUDY    77  61  57 SW12G18   30.18S
PLYMOUTH       PTSUNNY   74  59  59 S10       30.19S
TAUNTON        CLOUDY    73  59  61 SW9       30.18F
NEW BEDFORD    PTSUNNY   69  59  70 SW13      30.21R
$$

MAZALL-261700-
CAPE COD AND THE ISLANDS

CITY           SKY/WX    TMP DP  RH WIND       PRES   REMARKS
FALMOUTH       PTSUNNY   68  59  73 SW22G33   30.24R
HYANNIS        MOSUNNY   71  60  68 SW30G38   30.20S
CHATHAM        MOSUNNY   67  60  78 SW16G26   30.23F
PROVINCETOWN   PTSUNNY   64  55  72 SW18G26   30.19R
NANTUCKET      MOSUNNY   65  57  75 SW22      30.25F
MARTHAS VNYRD  MOSUNNY   67  58  72 SW20G29   30.24S
$$

MAZALL-261700-
CENTRAL AND WESTERN MASSACHUSETTS

CITY           SKY/WX    TMP DP  RH WIND       PRES   REMARKS
WORCESTER      CLOUDY    74  59  59 SW12      30.19S
FITCHBURG      CLOUDY    78  61  55 S10       30.16S
ORANGE         CLOUDY    73  59  61 S13       30.16F
SPRINGFIELD    CLOUDY    76  60  57 S13       30.15F
WESTFIELD      CLOUDY    79  60  52 S15       30.16F
NORTH ADAMS    MOSUNNY   81  62  52 VRB6G18   30.14F
PITTSFIELD     PTSUNNY   78  61  55 SW9       30.17S
$$

RIZALL-261700-
RHODE ISLAND

CITY           SKY/WX    TMP DP  RH WIND       PRES   REMARKS
PROVIDENCE     CLOUDY    78  60  53 SW8       30.19F
NEWPORT        CLOUDY    64  57  78 S13       30.22S
BLOCK ISLAND   MOSUNNY   63  55  77 SW23      30.24F
SMITHFIELD     CLOUDY    73  57  56 SW6       30.20S
WESTERLY       PTSUNNY   68  58  70 S7        30.23S
$$

CTZALL-261700-
CONNECTICUT

CITY           SKY/WX    TMP DP  RH WIND       PRES   REMARKS
BRADLEY INTL   CLOUDY    79  61  53 S9        30.16F
HARTFORD       CLOUDY    76  61  59 S12G22    30.17F
BRIDGEPORT     MOSUNNY   77  60  55 SW13      30.20F
DANBURY        MOSUNNY   80  60  50 VRB7      30.20F
GROTON         PTSUNNY   69  59  70 SW13      30.21F
NEW HAVEN      MOSUNNY   75  61  61 S10       30.21S
CHESTER        FAIR      77  61  57 SW12G17   30.21F
MERIDEN        PTSUNNY   81  61  50 S8        30.18F
WILLIMANTIC    CLOUDY    77  60  55 SW8       30.20R
$$

MEZ002-015-021-024-NHZ003-005-008-011-012-014-VTZ005-008-261700-
NORTHERN NEW ENGLAND

CITY           SKY/WX    TMP DP  RH WIND       PRES   REMARKS
PORTLAND ME    CLOUDY    73  62  68 SE8       30.06F
BANGOR ME      PTSUNNY   71  62  73 S12       30.02F
CONCORD NH     PTSUNNY   84  62  47 SW8G17    30.10F
MANCHESTER NH  PTSUNNY   81  61  50 SW10      30.11S
NASHUA NH      PTSUNNY   83  62  48 W12G18    30.14S
PORTSMOUTH NH  PTSUNNY   83  63  49 SW13      30.08F
JAFFREY NH     CLOUDY    75  60  59 S8G18     30.17S
KEENE NH       CLOUDY   N/A N/A N/A SW12G18   30.13F
BURLINGTON VT  PTSUNNY   80  60  50 SW9       30.05F
MT. WASHINGTON FOG       52  52 100 W62G68      N/A  VSB 0
$$

NYZ052-076-261700-
EASTERN NEW YORK

CITY           SKY/WX    TMP DP  RH WIND       PRES   REMARKS
ALBANY         CLOUDY    84  63  49 S8        30.13S
NEW YORK CITY  MOSUNNY   82  58  43 SW13      30.19F
$$

ANZALL-261700-
MARINE OBSERVATIONS

STATION/POSITION TIME  TEMP    WIND        PRES    VSBY  WAVE
                       AIR SEA DIR/SP/G                  HT/PER
                 (UTC) (F)     (DEG/KT/KT) (MB)    (MI)  (FT/S)
BOSTON BUOY      1550   61 54  200/ 12/ 14   N/A           2/ 3
BUZZARDS BAY     1600          220/ 19/ 20   N/A
NANTUCKET SOUND  1550   61 58  220/ 19/ 23   N/A           2/ 4
MASS BAY-STELLWA 1504   57 51  180/  8/ 10   N/A    1 7/8  3/ 5
ISLE OF SHOALS   1600   73     230/ 19/ 19   N/A
S OF BLOCK IS    1508      54                N/A           4/ 6
$$

......................KEY.........................
  SKY/WX - SKY CONDITION/PRESENT WEATHER
  TMP    - TEMPERATURE IN FAHRENHEIT
  DWPT   - DEWPOINT IN FAHRENHEIT
  RH     - RELATIVE HUMIDITY IN PERCENT
  WIND   - DIRECTION AND SPEED IN MPH
  PRES   - MEAN SEA LEVEL PRESSURE IN INCHES OF HG
  WCI    - WIND CHILL INDEX
  VSB    - VISIBILITY IN MILES
  HX     - HEAT INDEX
  TC     - TEMPERATURE IN CELSIUS
  VRB    - VARIABLE WIND DIRECTION
  N/A    - NOT AVAILABLE



USA.gov is the U.S. government's official web portal to all federal, state and local government web resources and services.